Regional Weather Roundup
Issued by NWS

Home | Current Version | Previous Version | Graphics & Text | Print | Product List | Glossary On
Versions: 1 2 3 4 5 6 7 8 9 10 11 12 13 14 15 16 17 18 19 20 21 22 23 24 25 26 27 28 29 30 31 32 33 34 35 36 37 38 39 40 41 42 43 44 45 46 47 48 49 50
000
ASUS45 KCYS 290210
RWRWY

WYOMING REGIONAL WEATHER ROUNDUP
NATIONAL WEATHER SERVICE CHEYENNE WY
800 PM MDT THU AUG 28 2014

NOTE:  "FAIR" INDICATES FEW OR NO CLOUDS BELOW 12,000 FEET
WITH NO SIGNIFICANT WEATHER AND/OR OBSTRUCTIONS TO VISIBILITY.

WYZ001-290300-
YELLOWSTONE NATIONAL PARK

CITY           SKY/WX    TMP DP  RH WIND       PRES   REMARKS
LK YELLOWSTONE   N/A     57  45  64 W5        30.28S
W YELLOWSTONE  NOT AVBL

$$
WYZ002>013-054>058-071-098>099-290300-
NORTHERN WYOMING

CITY           SKY/WX    TMP DP  RH WIND       PRES   REMARKS
JACKSON        NOT AVBL
CODY           MOCLDY    72  45  37 S7        30.01S
GREYBULL       CLEAR     79  43  27 S6        29.93S
WORLAND        CLEAR     72  48  42 CALM      29.96S
SHERIDAN       CLEAR     65  49  56 W5        29.95S
BUFFALO        CLEAR     67  48  50 W9        30.04S
GILLETTE       CLEAR     62  52  69 CALM      29.98S
HULETT         FAIR      70  46  43 MISG      29.99
NEWCASTLE      FAIR      70  54  56 CALM      29.98

$$
WYZ014>020-022>026-101>103-290300-
CENTRAL WYOMING

CITY           SKY/WX    TMP DP  RH WIND       PRES   REMARKS
BIG PINEY      CLEAR     63  42  46 NW10      30.23S
PINEDALE       CLEAR     63  39  42 W9        30.22S
DUBOIS         FAIR      63  32  31 NW13      30.20S
LANDER         CLEAR     69  47  45 S9        30.05S
RIVERTON       CLEAR     72  38  29 SE7       30.07F
CASPER         PTCLDY    65  49  56 N5        30.06F
DOUGLAS        CLEAR     64  51  62 SE7       30.05S

$$
WYZ021-027>030-104>119-290300-
SOUTHERN WYOMING

CITY           SKY/WX    TMP DP  RH WIND       PRES   REMARKS
EVANSTON       PTCLDY    65  44  46 W8        30.27S
KEMMERER       CLEAR     63  43  48 W12       30.27S
FORT BRIDGER   FAIR      66  43  42 W7        30.29R
ROCK SPRINGS   CLEAR     67  41  38 SW10      30.20F
DIXON          FAIR      66  47  50 CALM      30.23S
RAWLINS        CLEAR     63  38  39 NW5       30.20S
SARATOGA       FAIR      59  50  72 W5        30.22S
LARAMIE        MOCLDY    57  47  69 W9        30.20S
CHEYENNE       PTCLDY    61  48  62 SE3       30.14S
TORRINGTON     MOCLDY    62  54  74 S5        30.01F
PINE BLUFFS    FAIR      59  50  72 CALM      30.10S

$$


USA.gov is the U.S. government's official web portal to all federal, state and local government web resources and services.